Regional Weather Roundup
Issued by NWS

Home | Current Version | Previous Version | Graphics & Text | Print | Product List | Glossary On
Versions: 1 2 3 4 5 6 7 8 9 10 11 12 13 14 15 16 17 18 19 20 21 22 23 24 25 26 27 28 29 30 31 32 33 34 35 36 37 38 39 40 41 42 43 44 45 46 47 48 49 50
000
ASUS44 KMEG 170910
RWRTN
TENNESSEE HOURLY STATE WEATHER ROUNDUP
NATIONAL WEATHER SERVICE MEMPHIS TN
400 AM CDT WED SEP 17 2014

TNZ002-004-019-021-049-052-054-088>092-171000-
WEST TENNESSEE

CITY           SKY/WX    TMP DP  RH WIND       PRES   REMARKS
MEMPHIS INTL   CLEAR     66  59  78 E7        30.02F
NWS MEMPHIS      N/A     63 N/A N/A MISG        N/A
JACKSON        CLEAR     58  55  90 N6        30.04S
DYERSBURG      CLEAR     55  45  67 NE6       30.06F
UNION CITY       N/A     52  52 100 CALM      30.05F
PARIS          CLEAR     48  48 100 CALM      30.06S
HUNTINGDON     CLEAR     54  51  89 CALM      30.05F
LEXINGTON      CLEAR     55  54  94 N6        30.02F
SAVANNAH       CLEAR     61  61 100 CALM      30.02F
$$

TNZ008-025-027-028-033-062-065-066-171000-
NORTH MIDDLE TENNESSEE

CITY           SKY/WX    TMP DP  RH WIND       PRES   REMARKS
NASHVILLE      PTCLDY    56  54  93 N5        30.03F
DICKSON        CLEAR     52  52 100 N3        30.03F
PORTLAND       CLOUDY    52  52 100 N3        30.04F VSB 1/4
CLARKSVILLE    PTCLDY    51  50  96 N3        30.05S FOG
LEBANON        CLEAR     55  54  97 CALM      30.02F
SMYRNA         CLEAR     55  54  97 N3        30.04F
MURFREESBORO   CLEAR     57  55  93 CALM      30.03
COOKEVILLE     CLOUDY    57  57 100 NE3       30.04S VSB 1/2
GALLATIN       PTCLDY    54  54 100 CALM      30.05F
CROSSVILLE     FOG       56  54  93 NE3       30.06S VSB 1/4
$$

TNZ061-075-076-078-094-096-097-171000-
SOUTH MIDDLE TENNESSEE

CITY           SKY/WX    TMP DP  RH WIND       PRES   REMARKS
LEWISBURG      CLOUDY    60  57  89 NW3       30.03S
FAYETTEVILLE   CLOUDY    61  57  88 NE7       30.01F
TULLAHOMA      CLOUDY    61  59  94 CALM      30.03S
WINCHESTER     CLOUDY    63  61  94 CALM      30.02F
MCMINNVILLE      N/A     59  59 100 NE5       30.03F VSB 1/2
COLUMBIA       CLOUDY    61  57  88 N3        30.01F
SHELBYVILLE    PTCLDY    57  57 100 CALM      30.03F
$$

TNZ017-018-042-046-047-171000-
NORTHEAST TENNESSEE

CITY           SKY/WX    TMP DP  RH WIND       PRES   REMARKS
TRI CITIES     MOCLDY    60  55  83 CALM      30.02F
ELIZABETHTON   PTSUNNY   57  55  94 CALM      30.02S
$$

TNZ012-013-036-069-073-074-171000-
CENTRAL EAST TENNESSEE

CITY           SKY/WX    TMP DP  RH WIND       PRES   REMARKS
KNOXVILLE      CLOUDY    62  59  90 N5        30.01S
OAK RIDGE      PTCLDY    58  56  93 CALM      30.04S
GATLINBURG     CLOUDY    63  61  94 W3        30.01S
MORRISTOWN     MOSUNNY   61  59  94 N6        30.03S
$$

TNZ083-085-099-171000-
SOUTHEAST TENNESSEE

CITY           SKY/WX    TMP DP  RH WIND       PRES   REMARKS
CHATTANOOGA    CLEAR     65  60  84 NW6       30.01S
$$

SKY/WX REPORTED AS FAIR MEANS FEW OR NO CLOUDS BELOW
12 THOUSAND FEET.



USA.gov is the U.S. government's official web portal to all federal, state and local government web resources and services.